Home > Weather > Osøyro > Past weeks

Flag for Norway Past Weather in Osøyro, Norway — Yesterday and Last 2 Weeks

Now
56 °F

Sunny.


Feels Like: 55 °F
Forecast: 54 / 66 °F
Wind: 6 mph from North

Location: Bergen / Flesland

Current Time: Jun 25, 2016 at 11:24:22 PM

Latest Report: Jun 25, 2016 at 10:00 PM


Visibility: 12 mi

Pressure: 30.00 "Hg

Humidity: 87%

Dew Point: 52 °F

Location of OsøyroLocation

Past Weather in Osøyro — Graph

°F

Osøyro Temperature Yesterday

Maximum temperature yesterday: 62 °F (at 2:00 PM)
Minimum temperature yesterday: 56 °F (at 1:00 AM)
Average temperature yesterday: 58 °F

High & Low Weather Summary for the Past Weeks

 TemperatureHumidityPressure
High70 °F (Jun 15, 12:00 PM)97% (Jun 25, 2:00 AM)30.14 "Hg (Jun 25, 2:00 AM)
Low45 °F (Jun 20, 2:00 AM)32% (Jun 14, 2:00 PM)29.57 "Hg (Jun 15, 6:00 AM)
Average57 °F74%29.86 "Hg
* Reported Jun 10 10:00 PM — Jun 25 10:00 PM, Osøyro, Weather by CustomWeather, © 2016

Note: Actual official high and low records may vary slightly from our data, if they occured in-between our weather recording intervals... More about our weather records

Advertising

Osøyro Weather History for the Previous 24 Hours

Scroll right to see more
 ConditionsComfort  
Time TempWeatherWind HumidityBarometerVisibility
10:00 PM
Sat, Jun 25
56 °FSunny.6 mph87%30.00 "Hg12 mi
9:00 PM56 °FSunny.6 mph87%30.01 "Hg13 mi
8:00 PM57 °FPassing clouds.6 mph84%30.01 "Hg17 mi
7:00 PM59 °FPassing clouds.6 mph80%30.01 "Hg14 mi
6:00 PM60 °FPassing clouds.6 mph79%30.02 "Hg14 mi
5:00 PM60 °FScattered clouds.6 mph79%30.05 "Hg14 mi
4:00 PM61 °FScattered clouds.6 mph78%30.06 "Hg14 mi
3:00 PM60 °FPassing clouds.3 mph82%30.06 "Hg19 mi
2:00 PM57 °FLow clouds.2 mph89%30.07 "Hg14 mi
1:00 PM56 °FLow clouds.2 mph91%30.08 "Hg18 mi
12:00 PM56 °FLow clouds.2 mph94%30.08 "Hg11 mi
11:00 AM55 °FLow clouds.2 mph93%30.08 "Hg14 mi
10:00 AM54 °FLow clouds.3 mph96%30.06 "Hg6 mi
9:00 AM54 °FLow clouds.3 mph96%30.05 "Hg6 mi
8:00 AM54 °FLow clouds.3 mph96%30.04 "Hg7 mi
7:00 AM54 °FLow clouds.5 mph95%30.03 "Hg9 mi
6:00 AM54 °FLow clouds.3 mph96%30.03 "Hg5 mi
5:00 AM54 °FLow clouds.2 mph96%30.01 "Hg3 mi
4:00 AM54 °FLow clouds.2 mph96%30.01 "Hg4 mi
3:00 AM54 °FLow clouds.2 mph97%30.01 "Hg6 mi
2:00 AM54 °FLow clouds.3 mph97%30.01 "Hg5 mi
1:00 AM54 °FLow clouds.5 mph96%30.00 "Hg4 mi
12:00 AM56 °FRain showers. Low clouds.2 mph95%29.98 "Hg3 mi
11:00 PM
Fri, Jun 24
56 °FLow clouds.1 mph95%29.96 "Hg6 mi
Weather by CustomWeather, © 2016

See weather overviewHow to use our weather pages